Content
SEND FEEDBACK

Daily
Averages
Monthly
Summary
Switzerland

PAYERNE, SWITZERLAND


Home > Europe > Switzerland
Elevation: 1463 feet     Latitude: 46 50N     Longitude: 006 55E

WEATHER
 
SELECT A DAY
Number of Records: 86,717;   Date Range: 12/15/98 - 7/26/14
 
SHARE

PRINT THIS DATA

[ ← Previous Day ]
WEATHER ALMANAC - MAY 10, 2013
[ Next Day → ]
[ °C ]   °F
Weather ElementAverageHighLow
Temperature45.5 °F50 °F (12:50 am)41 °F (10:50 am)
Dewpoint41.7 °F50 °F (12:50 am)35.6 °F (5:50 pm)
Humidity87.1 %100 % (12:50 am)62 % (4:20 pm)
Barometer30.06 in30.12 in (10:20 pm)29.98 in (2:50 am)
Wind Speed4.4 mph11.5 mph (3:50 pm)
Weather ElementAverage
Visibility4.9 mi
Wind DirectionSE (134.7 °)

Weather ElementTotal
Precipitation---
Heating Degree Days19.5 (Base 65)
Averaged from 47 records on May 10, 2013
WEATHER CONDITIONS BREAKOUT
WIND DIRECTION BREAKOUT
WEATHER BY HOUR - MAY 10, 2013
[ °C ]   °F
Local TimeTemperatureDewpointHumidityBarometerVisibilityWind DirectionWind SpeedGust SpeedPrecipitationEventsConditions
12:50 AM50.0 °F50.0 °F100 %30.01 in4.3 miVariable2.3 mphRainRain
1:20 AM50.0 °F50.0 °F100 %30.01 in3.1 miVariable2.3 mphRainRain
1:50 AM48.2 °F48.2 °F100 %30.01 in5.0 miVariable2.3 mphRainRain
2:20 AM48.2 °F46.4 °F93 %30.01 in6.2 miVariable2.3 mphRainLight Rain
2:50 AM48.2 °F46.4 °F93 %29.98 in6.2 miNW (320°)1.2 mphRainLight Rain
3:20 AM46.4 °F46.4 °F100 %30.01 in2.2 miVariable4.6 mphRainRain
3:50 AM46.4 °F44.6 °F93 %30.01 in3.1 miVariable4.6 mphRainRain
4:20 AM46.4 °F44.6 °F93 %30.01 in6.2 miVariable3.5 mphRainLight Rain
4:50 AM46.4 °F44.6 °F93 %30.01 in6.2 miVariable3.5 mphScattered Clouds
5:20 AM46.4 °F44.6 °F93 %30.01 in6.2 miVariable2.3 mphDrizzle
5:50 AM46.4 °F44.6 °F93 %30.01 in6.2 miVariable2.3 mphRainLight Rain
6:20 AM46.4 °F44.6 °F93 %30.01 in6.2 miVariable2.3 mphRainLight Rain
6:50 AM46.4 °F44.6 °F93 %30.01 in6.2 miVariable2.3 mphRainLight Rain
7:20 AM46.4 °F44.6 °F93 %30.01 in5.0 miWest (270°)4.6 mphRainLight Rain
7:50 AM46.4 °F44.6 °F93 %30.04 in2.5 miWSW (240°)4.6 mphRainLight Rain
8:20 AM44.6 °F44.6 °F100 %30.04 in1.4 miNW (320°)4.6 mphDrizzle
8:50 AM44.6 °F42.8 °F93 %30.04 in2.5 miWest (270°)4.6 mphLight Drizzle
9:20 AM44.6 °F42.8 °F93 %30.04 inWest (270°)4.6 mphRainLight Rain
9:50 AM42.8 °F41.0 °F93 %30.06 inWest (260°)6.9 mphLight Drizzle
10:20 AM42.8 °F41.0 °F93 %30.06 in2.5 miWest (260°)6.9 mphLight Drizzle
10:50 AM41.0 °F39.2 °F93 %30.06 in1.9 miWest (270°)6.9 mphLight Drizzle
11:20 AM41.0 °F39.2 °F93 %30.06 in2.5 miWest (270°)5.8 mphLight Drizzle
11:50 AM41.0 °F41.0 °F100 %30.09 in1.9 miWSW (250°)5.8 mphLight Drizzle
12:20 PM41.0 °F41.0 °F100 %30.09 in1.9 miWSW (240°)8.1 mphLight Drizzle
12:50 PM42.8 °F41.0 °F93 %30.09 in1.2 miWSW (240°)3.5 mphLight Drizzle
1:20 PM42.8 °F41.0 °F93 %30.09 in1.9 miWest (260°)5.8 mphOvercast
1:50 PM42.8 °F41.0 °F93 %30.09 in3.1 miWest (270°)5.8 mphOvercast
2:20 PM44.6 °F39.2 °F81 %30.09 in6.2 miSW (230°)6.9 mphMostly Cloudy
2:50 PM46.4 °F41.0 °F81 %30.09 in6.2 miWest (270°)5.8 mphMostly Cloudy
3:20 PM46.4 °F37.4 °F71 %30.09 in6.2 miVariable3.5 mphMostly Cloudy
3:50 PM48.2 °F39.2 °F71 %30.09 in6.2 miWSW (250°)11.5 mphMostly Cloudy
4:20 PM50.0 °F37.4 °F62 %30.09 in6.2 miWSW (240°)9.2 mphMostly Cloudy
4:50 PM48.2 °F37.4 °F66 %30.09 in6.2 miVariable4.6 mphMostly Cloudy
5:20 PM48.2 °F37.4 °F66 %30.06 in6.2 miWest (280°)4.6 mphMostly Cloudy
5:50 PM48.2 °F35.6 °F62 %30.09 in6.2 miNorth (350°)4.6 mphMostly Cloudy
6:20 PM48.2 °F37.4 °F66 %30.06 in6.2 miVariable4.6 mphScattered Clouds
6:50 PM48.2 °F39.2 °F71 %30.06 in6.2 miVariable2.3 mphOvercast
7:20 PM46.4 °F37.4 °F71 %30.09 in6.2 miNW (310°)3.5 mphMostly Cloudy
7:50 PM46.4 °F39.2 °F76 %30.09 in6.2 miVariable3.5 mphMostly Cloudy
8:20 PM44.6 °F39.2 °F81 %30.09 in6.2 miNW (310°)5.8 mphMostly Cloudy
8:50 PM44.6 °F41.0 °F87 %30.09 in6.2 miNNE (20°)5.8 mphOvercast
9:20 PM44.6 °F41.0 °F87 %30.09 in6.2 miNNE (30°)4.6 mphMostly Cloudy
9:50 PM44.6 °F39.2 °F81 %30.09 in6.2 miVariable3.5 mphScattered Clouds
10:20 PM42.8 °F41.0 °F93 %30.12 in6.2 miVariable2.3 mphScattered Clouds
10:50 PM42.8 °F39.2 °F87 %30.12 in6.2 miNNE (30°)3.5 mphMostly Cloudy
11:20 PM42.8 °F39.2 °F87 %30.09 in6.2 miVariable2.3 mphOvercast
11:50 PM42.8 °F39.2 °F87 %30.09 in6.2 miVariable2.3 mphMostly Cloudy
Hourly data recorded from LSGC, located miles away from Payerne, Switzerland







STORIES FROM OUR PARTNERS